Darwin, CA

9:56 PM PST on February 09, 2016 (GMT -0800)
China Lake NAWS

Weather History for KNID - November, 2012

Change the Weather History Date:

Friday, November 9, 2012

  Actual Average Record
Temperature  
Mean Temperature 51 °F -  
Max Temperature 57 °F 65 °F 80 °F (2014)
Min Temperature 44 °F 40 °F 27 °F (2011)
Degree Days  
Heating Degree Days 14    
Growing Degree Days 1 (Base 50)    
Moisture  
Dew Point 22 °F    
Average Humidity 34    
Maximum Humidity 54    
Minimum Humidity 22    
Precipitation  
Precipitation 0.00 in - - ()
Sea Level Pressure  
Sea Level Pressure 29.76 in    
Wind  
Wind Speed 20 mph (WSW)    
Max Wind Speed 28 mph    
Max Gust Speed 40 mph    
Visibility 10 miles    
Events      
Averages and records for this station are not official NWS values.
T = Trace of Precipitation, MM = Missing Value Source: NWS Daily Summary

Daily Weather History Graph

Daily Weather History Graph

Search for Another Location

Airport or City:

Trip Planner

Search our weather history database for the weather conditions in past years. The results will help you decide how hot, cold, wet, or windy it might be!

Date:

Astronomy

Nov. 09, 2012 Rise Set
Actual Time 6:21 AM PST 4:47 PM PST
Civil Twilight 5:54 AM PST 5:14 PM PST
Nautical Twilight 5:23 AM PST 5:45 PM PST
Astronomical Twilight 4:53 AM PST 6:15 PM PST
Moon 1:34 AM PST (11/9) 1:55 PM PST (11/9)
Length of Visible Light 11h 20m
Length of Day
10h 26m
Waning Crescent, 22% of the Moon is Illuminated
Nov 9
Waning Crescent
Nov 13
New
Nov 20
First Quarter
Nov 28
Full
Dec 6
Last Quarter

Hourly Weather History & Observations

Time (PST) Temp. Windchill Dew Point Humidity Pressure Visibility Wind Dir Wind Speed Gust Speed Precip Events Conditions
12:56 AM 53.1 °F - 35.1 °F 50% 29.70 in 10.0 mi SSW 23.0 mph 28.8 mph N/A   Clear
1:56 AM 52.0 °F - 35.1 °F 53% 29.71 in 10.0 mi SSW 16.1 mph 27.6 mph N/A   Clear
2:56 AM 51.1 °F - 35.1 °F 54% 29.70 in 10.0 mi SSW 17.3 mph 23.0 mph N/A   Clear
3:56 AM 52.0 °F - 32.0 °F 47% 29.70 in 10.0 mi SW 18.4 mph 26.5 mph N/A   Clear
4:56 AM 51.1 °F - 28.9 °F 43% 29.70 in 10.0 mi SW 23.0 mph 27.6 mph N/A   Clear
5:56 AM 50.0 °F - 28.0 °F 43% 29.72 in 10.0 mi SW 20.7 mph 27.6 mph N/A   Clear
6:56 AM 48.9 °F - 26.1 °F 41% 29.75 in 10.0 mi SW 13.8 mph 21.9 mph N/A   Clear
7:56 AM 51.1 °F - 25.0 °F 36% 29.74 in 10.0 mi WSW 25.3 mph 29.9 mph N/A   Clear
8:56 AM 53.1 °F - 21.9 °F 30% 29.75 in 10.0 mi WSW 27.6 mph 35.7 mph N/A   Clear
9:56 AM 55.0 °F - 21.0 °F 27% 29.75 in 10.0 mi SW 27.6 mph 33.4 mph N/A   Clear
10:56 AM 55.9 °F - 19.9 °F 25% 29.75 in 10.0 mi SW 26.5 mph 32.2 mph N/A   Clear
11:56 AM 57.9 °F - 19.0 °F 22% 29.74 in 10.0 mi SW 12.7 mph 28.8 mph N/A   Clear
12:56 PM 57.0 °F - 18.0 °F 22% 29.73 in 10.0 mi SW 25.3 mph 32.2 mph N/A   Clear
1:56 PM 55.0 °F - 19.0 °F 24% 29.74 in 10.0 mi SW 27.6 mph 36.8 mph N/A   Clear
2:56 PM 53.1 °F - 19.9 °F 27% 29.73 in 10.0 mi SW 27.6 mph 40.3 mph N/A   Clear
3:56 PM 52.0 °F - 21.0 °F 30% 29.75 in 10.0 mi WSW 13.8 mph 28.8 mph N/A   Clear
4:56 PM 48.0 °F - 23.0 °F 37% 29.77 in 10.0 mi SW 16.1 mph 25.3 mph N/A   Clear
5:56 PM 46.9 °F - 21.9 °F 37% 29.79 in 10.0 mi SW 16.1 mph - N/A   Clear
6:56 PM 45.0 °F 39.3 °F 19.9 °F 37% 29.83 in 10.0 mi West 11.5 mph 19.6 mph N/A   Clear
7:56 PM 46.9 °F - 16.0 °F 29% 29.84 in 10.0 mi West 9.2 mph - N/A   Clear
8:56 PM 46.0 °F 40.2 °F 14.0 °F 28% 29.84 in 10.0 mi WSW 12.7 mph 20.7 mph N/A   Clear
9:56 PM 46.0 °F 39.0 °F 12.9 °F 26% 29.83 in 10.0 mi West 17.3 mph 25.3 mph N/A   Clear
10:56 PM 45.0 °F 40.1 °F 10.0 °F 24% 29.84 in 10.0 mi WNW 9.2 mph 19.6 mph N/A   Clear
11:56 PM 44.1 °F 42.5 °F 10.9 °F 26% 29.85 in 10.0 mi NNW 3.5 mph - N/A   Clear